Weather History for Eureka, NU

Change the Weather History Date:

Tuesday, March 12, 2013

  Actual Average Record
Temperature  
Mean Temperature -26 °F -  
Max Temperature -22 °F -22 °F 0 °F (1999)
Min Temperature -31 °F -36 °F -52 °F (2008)
Degree Days  
Heating Degree Days 92    
Moisture  
Dew Point -34 °F    
Average Humidity 63    
Maximum Humidity 75    
Minimum Humidity 42    
Precipitation  
Precipitation 0.00 in 0.00 in - ()
Sea Level Pressure  
Sea Level Pressure 30.33 in    
Wind  
Wind Speed 1 mph ()    
Max Wind Speed 6 mph    
Max Gust Speed -    
Visibility 15.0 miles    
Events Snow    
Averages and records for this station are not official NWS values.
T = Trace of Precipitation, MM = Missing Value Source: Averaged Metar Reports

Daily Weather History Graph

Daily Weather History Graph

Search for Another Location

Airport:

Trip Planner

Search our weather history database for the weather conditions in past years. The results will help you decide how hot, cold, wet, or windy it might be!

Date:

Astronomy

Mar. 12, 2013 Rise Set
Actual Time 7:45 AM CDT 6:05 PM CDT
Civil Twilight 5:46 AM CDT 8:06 PM CDT
Nautical Twilight 2:47 AM CDT 11:16 PM CDT
Astronomical Twilight Sun does not rise Sun does not rise
Moon 5:58 AM CDT (3/12) 10:24 PM CDT (3/12)
Length of Visible Light 14h 19m
Length of Day
10h 19m
New Moon, 1% of the Moon is Illuminated
Mar 12
New Moon
Mar 19
First Quarter
Mar 27
Full
Apr 2
Last Quarter
Apr 10
New

Hourly Weather History & Observations

Time (CDT) Temp. Windchill Dew Point Humidity Pressure Visibility Wind Dir Wind Speed Gust Speed Precip Events Conditions
1:00 AM -22 °F - -29 °F 55% 30.29 in 15 mi Calm Calm - - Snow Snow
1:00 AM -22.0 °F - -29.2 °F 69% 30.29 in 15.0 mi Calm Calm - N/A   Overcast
2:00 AM -20.2 °F - -27.4 °F 69% 30.30 in 15.0 mi Calm Calm - N/A   Overcast
3:00 AM -18.4 °F -28.9 °F -27.4 °F 63% 30.31 in 15.0 mi ESE 3.5 mph - N/A   Overcast
5:00 AM -20.2 °F -33.5 °F -29.2 °F 63% 30.32 in 15.0 mi East 4.6 mph - N/A   Partly Cloudy
6:00 AM -23.8 °F -39.8 °F -31.0 °F 69% 30.33 in 15.0 mi ESE 5.8 mph - N/A   Partly Cloudy
7:00 AM -24 °F - -32 °F 51% 30.34 in 15 mi ESE 4.6 mph - - Snow Snow
7:00 AM -23.8 °F -37.7 °F -31.0 °F 69% 30.34 in 15.0 mi ESE 4.6 mph - N/A   Partly Cloudy
8:00 AM -25.6 °F -37.1 °F -32.8 °F 69% 30.34 in 15.0 mi East 3.5 mph - N/A   Partly Cloudy
9:00 AM -23.8 °F - -32.8 °F 63% 30.34 in 15.0 mi Calm Calm - N/A   Partly Cloudy
11:00 AM -27.4 °F - -34.6 °F 69% 30.35 in 15.0 mi Calm Calm - N/A   Mostly Cloudy
12:00 PM -27.4 °F - -36.4 °F 62% 30.35 in 15.0 mi Calm Calm - N/A   Scattered Clouds
1:00 PM -28 °F - -36 °F 48% 30.35 in 15 mi Calm Calm - - Snow Snow
1:00 PM -27.4 °F - -36.4 °F 62% 30.35 in 15.0 mi Calm Calm - N/A   Scattered Clouds
2:00 PM -29.2 °F - -34.6 °F 75% 30.34 in 15.0 mi Calm Calm - N/A   Partly Cloudy
3:00 PM -23.8 °F - -32.8 °F 63% 30.35 in 15.0 mi Calm Calm - N/A   Partly Cloudy
4:00 PM -25.6 °F - -32.8 °F 69% 30.34 in 15.0 mi Calm Calm - N/A   Partly Cloudy
5:00 PM -27.4 °F - -34.6 °F 69% 30.33 in 15.0 mi Calm Calm - N/A   Partly Cloudy
6:00 PM -25.6 °F - -34.6 °F 63% 30.34 in 15.0 mi Calm Calm - N/A   Partly Cloudy
7:00 PM -30 °F - -39 °F 42% 30.33 in 15 mi Calm Calm - - Snow Snow
7:00 PM -31.0 °F - -40.0 °F 62% 30.33 in 15.0 mi Calm Calm - N/A   Clear
8:00 PM -31.0 °F - -38.2 °F 68% 30.32 in 15.0 mi Calm Calm - N/A   Clear
9:00 PM -29.2 °F - -38.2 °F 62% 30.33 in 15.0 mi Calm Calm - N/A   Clear
10:00 PM -31.0 °F - -38.2 °F 68% 30.31 in 15.0 mi Calm Calm - N/A   Clear